Weather History for Carroll, IA

Change the Weather History Date:

Sunday, July 22, 2012

  Actual Average Record
Temperature  
Mean Temperature 84 °F -  
Max Temperature 98 °F 85 °F 100 °F (1974)
Min Temperature 69 °F 62 °F 48 °F (1956)
Cooling Degree Days 18    
Growing Degree Days 34 (Base 50)    
Moisture  
Dew Point 65 °F    
Average Humidity 55    
Maximum Humidity 88    
Minimum Humidity 32    
Precipitation  
Precipitation 0.00 in - - ()
Sea Level Pressure  
Sea Level Pressure 29.97 in    
Wind  
Wind Speed 10 mph (SSW)    
Max Wind Speed 24 mph    
Max Gust Speed 33 mph    
Visibility 10 miles    
Events      
Averages and records for this station are not official NWS values.
T = Trace of Precipitation, MM = Missing Value Source: NWS Daily Summary

Daily Weather History Graph

Daily Weather History Graph

Search for Another Location

Airport:

Trip Planner

Search our weather history database for the weather conditions in past years. The results will help you decide how hot, cold, wet, or windy it might be!

Date:

Astronomy

Jul. 22, 2012 Rise Set
Actual Time 6:03 AM CDT 8:47 PM CDT
Civil Twilight 5:30 AM CDT 9:19 PM CDT
Nautical Twilight 4:49 AM CDT 10:00 PM CDT
Astronomical Twilight 4:02 AM CDT 10:47 PM CDT
Moon 9:54 AM CDT (7/22) 10:25 PM CDT (7/22)
Length of Visible Light 15h 49m
Length of Day
14h 44m
Waxing Crescent, 13% of the Moon is Illuminated
Jul 22
Waxing Crescent
Jul 26
First Quarter
Aug 1
Full
Aug 9
Last Quarter
Aug 17
New

Hourly Weather History & Observations

Time (CDT) Temp. Heat Index Dew Point Humidity Pressure Visibility Wind Dir Wind Speed Gust Speed Precip Events Conditions
12:15 AM 69.8 °F - 66.2 °F 88% 29.98 in 10.0 mi South 3.5 mph - N/A   Clear
12:35 AM 69.8 °F - 64.4 °F 83% 29.98 in 10.0 mi South 5.8 mph - N/A   Clear
12:55 AM 69.8 °F - 64.4 °F 83% 29.98 in 10.0 mi South 6.9 mph - N/A   Clear
1:15 AM 69.8 °F - 64.4 °F 83% 29.98 in 10.0 mi South 4.6 mph - N/A   Clear
1:35 AM 71.6 °F - 64.4 °F 78% 29.98 in 10.0 mi South 6.9 mph - N/A   Clear
1:55 AM 75.2 °F - 64.4 °F 69% 29.98 in 10.0 mi South 6.9 mph - N/A   Clear
2:15 AM 75.2 °F - 62.6 °F 65% 29.98 in 10.0 mi SSW 8.1 mph - N/A   Clear
2:35 AM 77.0 °F - 62.6 °F 61% 29.98 in 10.0 mi SSW 9.2 mph - N/A   Clear
2:55 AM 77.0 °F - 62.6 °F 61% 29.98 in 10.0 mi South 10.4 mph - N/A   Clear
3:15 AM 77.0 °F - 62.6 °F 61% 29.98 in 10.0 mi SSW 11.5 mph - N/A   Clear
3:35 AM 77.0 °F - 62.6 °F 61% 29.97 in 10.0 mi South 12.7 mph - N/A   Clear
3:55 AM 77.0 °F - 62.6 °F 61% 29.97 in 10.0 mi South 10.4 mph - N/A   Clear
4:15 AM 75.2 °F - 62.6 °F 65% 29.97 in 10.0 mi South 10.4 mph - N/A   Clear
4:35 AM 77.0 °F - 62.6 °F 61% 29.98 in 10.0 mi South 10.4 mph - N/A   Clear
4:55 AM 77.0 °F - 62.6 °F 61% 29.99 in 10.0 mi SSW 10.4 mph 17.3 mph N/A   Clear
5:15 AM 77.0 °F - 62.6 °F 61% 30.00 in 10.0 mi SSW 10.4 mph - N/A   Clear
5:35 AM 77.0 °F - 62.6 °F 61% 30.03 in 10.0 mi West 3.5 mph - N/A   Clear
6:15 AM 73.4 °F - 66.2 °F 78% 30.08 in 10.0 mi Variable 5.8 mph - N/A   Scattered Clouds
6:35 AM 71.6 °F - 66.2 °F 83% 30.07 in 10.0 mi Calm Calm - N/A   Partly Cloudy
6:55 AM 71.6 °F - 68.0 °F 88% 30.07 in 10.0 mi Calm Calm - N/A   Scattered Clouds
7:15 AM 71.6 °F - 68.0 °F 88% 30.07 in 10.0 mi SE 5.8 mph - N/A   Partly Cloudy
7:35 AM 71.6 °F - 68.0 °F 88% 30.06 in 10.0 mi SE 6.9 mph - N/A   Clear
7:55 AM 71.6 °F - 68.0 °F 88% 30.05 in 10.0 mi SE 8.1 mph - N/A   Clear
8:15 AM 73.4 °F - 68.0 °F 83% 30.03 in 10.0 mi SE 9.2 mph - N/A   Clear
8:35 AM 77.0 °F - 66.2 °F 69% 30.02 in 10.0 mi SSE 11.5 mph 18.4 mph N/A   Clear
9:15 AM 78.8 °F - 66.2 °F 65% 30.01 in 10.0 mi SSE 13.8 mph - N/A   Clear
9:35 AM 80.6 °F 82.3 °F 64.4 °F 58% 30.00 in 10.0 mi SSE 12.7 mph 19.6 mph N/A   Clear
9:55 AM 82.4 °F 84.6 °F 66.2 °F 58% 29.99 in 10.0 mi South 15.0 mph 23.0 mph N/A   Clear
10:15 AM 84.2 °F 85.6 °F 64.4 °F 51% 29.99 in 10.0 mi South 18.4 mph 25.3 mph N/A   Clear
10:35 AM 86.0 °F 87.3 °F 64.4 °F 48% 29.98 in 10.0 mi South 19.6 mph 25.3 mph N/A   Clear
10:55 AM 87.8 °F 89.4 °F 64.4 °F 46% 29.97 in 10.0 mi SSW 17.3 mph 27.6 mph N/A   Clear
11:15 AM 89.6 °F 90.1 °F 62.6 °F 40% 29.96 in 10.0 mi SSW 19.6 mph 28.8 mph N/A   Clear
11:35 AM 89.6 °F 90.1 °F 62.6 °F 40% 29.96 in 10.0 mi SSW 23.0 mph 28.8 mph N/A   Clear
11:55 AM 89.6 °F 90.1 °F 62.6 °F 40% 29.96 in 10.0 mi SW 24.2 mph 33.4 mph N/A   Clear
12:15 PM 91.4 °F 92.1 °F 62.6 °F 38% 29.95 in 10.0 mi SSW 20.7 mph 31.1 mph N/A   Clear
12:35 PM 91.4 °F 93.2 °F 64.4 °F 41% 29.95 in 10.0 mi SSW 17.3 mph 33.4 mph N/A   Clear
12:55 PM 93.2 °F 94.9 °F 64.4 °F 38% 29.95 in 10.0 mi SSW 17.3 mph 32.2 mph N/A   Clear
1:15 PM 93.2 °F 94.9 °F 64.4 °F 38% 29.95 in 10.0 mi SSW 23.0 mph 32.2 mph N/A   Clear
1:35 PM 95.0 °F 97.0 °F 64.4 °F 36% 29.95 in 10.0 mi SW 19.6 mph 27.6 mph N/A   Clear
1:55 PM 95.0 °F 97.0 °F 64.4 °F 36% 29.95 in 10.0 mi SSW 17.3 mph 28.8 mph N/A   Clear
2:15 PM 96.8 °F 99.0 °F 64.4 °F 34% 29.96 in 10.0 mi SW 17.3 mph 24.2 mph N/A   Clear
2:35 PM 96.8 °F 99.0 °F 64.4 °F 34% 29.96 in 10.0 mi SW 16.1 mph 26.5 mph N/A   Clear
2:55 PM 96.8 °F 99.0 °F 64.4 °F 34% 29.96 in 10.0 mi WSW 16.1 mph 26.5 mph N/A   Clear
3:15 PM 98.6 °F 101.0 °F 64.4 °F 32% 29.96 in 10.0 mi SW 16.1 mph 25.3 mph N/A   Clear
3:35 PM 96.8 °F 99.0 °F 64.4 °F 34% 29.95 in 10.0 mi SW 20.7 mph 27.6 mph N/A   Clear
3:55 PM 96.8 °F 99.0 °F 64.4 °F 34% 29.95 in 10.0 mi SW 18.4 mph - N/A   Clear
4:15 PM 96.8 °F 99.0 °F 64.4 °F 34% 29.94 in 10.0 mi SW 19.6 mph 25.3 mph N/A   Clear
4:35 PM 96.8 °F 99.0 °F 64.4 °F 34% 29.94 in 10.0 mi SW 18.4 mph 25.3 mph N/A   Clear
4:55 PM 98.6 °F 101.0 °F 64.4 °F 32% 29.94 in 10.0 mi SW 17.3 mph 25.3 mph N/A   Clear
5:15 PM 96.8 °F 98.0 °F 62.6 °F 32% 29.94 in 10.0 mi SW 18.4 mph 25.3 mph N/A   Clear
5:35 PM 98.6 °F 101.0 °F 64.4 °F 32% 29.94 in 10.0 mi SW 11.5 mph 21.9 mph N/A   Clear
5:55 PM 98.6 °F 101.0 °F 64.4 °F 32% 29.94 in 10.0 mi SW 15.0 mph 21.9 mph N/A   Clear
6:15 PM 96.8 °F 99.0 °F 64.4 °F 34% 29.94 in 10.0 mi SW 13.8 mph - N/A   Clear
6:35 PM 95.0 °F 98.5 °F 66.2 °F 39% 29.94 in 10.0 mi SW 8.1 mph - N/A   Clear
6:55 PM 96.8 °F 100.7 °F 66.2 °F 37% 29.93 in 10.0 mi SSW 11.5 mph - N/A   Clear
7:15 PM 95.0 °F 99.5 °F 68.0 °F 41% 29.93 in 10.0 mi SSW 9.2 mph - N/A   Clear
7:35 PM 93.2 °F 97.7 °F 68.0 °F 44% 29.93 in 10.0 mi SSW 6.9 mph - N/A   Clear
7:55 PM 89.6 °F 94.7 °F 69.8 °F 52% 29.93 in 10.0 mi SSW 5.8 mph - N/A   Clear
8:15 PM 87.8 °F 92.6 °F 69.8 °F 55% 29.93 in 10.0 mi SSW 6.9 mph - N/A   Clear
8:35 PM 87.8 °F 92.6 °F 69.8 °F 55% 29.93 in 10.0 mi SSW 6.9 mph - N/A   Clear
8:55 PM 86.0 °F 89.4 °F 68.0 °F 55% 29.93 in 10.0 mi SW 8.1 mph - N/A   Clear
9:15 PM 86.0 °F 89.4 °F 68.0 °F 55% 29.93 in 10.0 mi SW 8.1 mph - N/A   Clear
9:35 PM 84.2 °F 87.3 °F 68.0 °F 58% 29.94 in 10.0 mi SW 8.1 mph - N/A   Clear
9:55 PM 84.2 °F 87.3 °F 68.0 °F 58% 29.95 in 10.0 mi SW 9.2 mph - N/A   Clear
10:15 PM 86.0 °F 89.4 °F 68.0 °F 55% 29.96 in 10.0 mi SW 8.1 mph - N/A   Clear
10:35 PM 84.2 °F 87.3 °F 68.0 °F 58% 29.97 in 10.0 mi SW 5.8 mph - N/A   Clear
10:55 PM 82.4 °F 85.4 °F 68.0 °F 62% 29.97 in 10.0 mi SW 6.9 mph - N/A   Clear
11:35 PM 82.4 °F 84.6 °F 66.2 °F 58% 29.96 in 10.0 mi SW 6.9 mph - N/A   Clear
11:55 PM 78.8 °F - 66.2 °F 65% 29.96 in 10.0 mi SW 4.6 mph - N/A   Clear